Temperature
3 3 3 4 4 4 4 5 6 6 5 6 5 4 3 2 1 1 1 1 1 2 2 3 3 3 3 3 3 3 3 3 3 3 3 4 4 4 4 4 4 4 4 4
3 3 3 3 3 3 3 4 4 5 5 5 4 3 2 2 1 1 1 1 1 1 1 2 2 3 3 3 3 3 3 3 3 3 3 3 3 3 3 3 3 3 3 3
4 3 3 4 3 3 3 3 4 4 5 3 3 2 2 1 1 0 0 0 0 1 1 1 2 2 2 2 2 2 2 2 2 2 2 2 3 3 3 3 3 3 3 3
3 3 4 5 3 3 2 2 2 3 3 2 2 1 0 0 -0 -0 0 0 0 1 1 1 1 1 2 2 2 2 2 2 2 2 2 2 2 2 2 2 2 2 2 2
3 4 4 4 2 2 2 2 2 2 2 1 0 0 1 0 -0 -0 -0 0 0 0 1 1 1 1 1 1 1 1 1 1 1 1 1 1 1 1 2 2 2 2 2 2
2 3 4 5 2 0 2 3 2 1 1 0 -0 2 2 0 -0 -0 -0 -0 -0 0 0 0 1 1 1 1 1 1 1 1 1 1 1 1 1 1 1 1 1 1 1 1
2 3 4 3 0 1 3 4 1 1 0 -0 0 1 -0 -1 -1 -1 -1 -1 -0 -0 -0 -0 0 0 0 0 0 0 0 0 0 0 0 -0 -0 0 0 0 0 1 1 1
1 2 3 1 0 1 2 1 0 -0 -0 -1 -1 -1 -1 -1 -1 -1 -1 -1 -1 -1 -1 -1 -0 -0 -0 -0 -0 -0 -0 -0 -0 -0 -0 -1 -1 -0 -0 -0 -0 -0 0 0
2 3 1 -0 0 0 -0 -0 -1 -1 -1 -1 -2 -2 -2 -2 -2 -2 -2 -2 -1 -1 -1 -1 -1 -1 -1 -1 -1 -1 -1 -1 -1 -1 -1 -1 -1 -1 -1 -1 -1 -1 -1 -1
-0 1 0 -1 -1 -1 -1 -1 -1 -1 -1 -2 -2 -2 -2 -2 -2 -2 -2 -2 -2 -2 -2 -2 -2 -2 -2 -1 -1 -1 -1 -1 -1 -2 -2 -2 -2 -1 -1 -1 -1 -1 -1 -1
-0 0 -1 -1 -1 -1 -1 -1 -1 -1 -2 -2 -2 -2 -2 -2 -3 -2 -2 -2 -2 -2 -2 -2 -2 -2 -2 -2 -2 -2 -2 -2 -2 -2 -2 -2 -2 -2 -2 -2 -2 -2 -2 -2
2 1 0 -0 -1 -1 -1 -2 -2 -2 -2 -2 -2 -2 -3 -3 -3 -3 -3 -3 -3 -3 -3 -3 -3 -3 -3 -2 -3 -2 -3 -3 -3 -3 -3 -3 -3 -2 -2 -2 -2 -2 -2 -2
-0 -1 -1 -1 -1 -1 -2 -2 -2 -2 -2 -2 -3 -3 -3 -3 -3 -3 -3 -3 -3 -3 -3 -3 -3 -3 -3 -3 -3 -3 -3 -3 -3 -3 -3 -3 -3 -3 -3 -3 -3 -3 -3 -3
-1 -1 -2 -2 -2 -2 -2 -2 -2 -2 -3 -3 -3 -3 -3 -3 -3 -3 -4 -4 -4 -4 -4 -4 -4 -4 -4 -4 -4 -4 -4 -4 -4 -4 -4 -4 -4 -4 -4 -3 -3 -3 -3 -3
-2 -2 -2 -2 -2 -2 -2 -3 -3 -3 -3 -3 -3 -3 -4 -4 -4 -4 -4 -4 -4 -4 -4 -4 -4 -4 -4 -4 -4 -4 -4 -4 -4 -4 -4 -4 -4 -4 -4 -4 -4 -4 -3 -3
-2 -2 -3 -3 -3 -3 -3 -3 -3 -3 -3 -4 -4 -4 -4 -4 -4 -4 -4 -5 -5 -5 -5 -5 -5 -4 -5 -5 -5 -5 -5 -5 -5 -5 -5 -5 -5 -5 -5 -5 -5 -4 -4 -4
-3 -3 -3 -3 -3 -3 -3 -3 -4 -4 -4 -4 -4 -4 -4 -5 -5 -5 -5 -5 -5 -5 -5 -5 -5 -5 -5 -5 -5 -5 -5 -5 -5 -5 -6 -6 -5 -5 -5 -5 -5 -5 -5 -5
-2 -2 -2 -2 -3 -3 -3 -4 -4 -4 -4 -4 -5 -5 -5 -5 -5 -5 -5 -5 -6 -6 -6 -6 -6 -6 -6 -6 -6 -6 -6 -6 -6 -6 -6 -6 -6 -6 -6 -6 -6 -6 -5 -5
-2 -3 -3 -3 -3 -3 -4 -4 -4 -4 -5 -5 -5 -5 -5 -5 -6 -6 -6 -6 -6 -6 -6 -6 -6 -6 -6 -6 -6 -6 -6 -6 -6 -6 -6 -6 -6 -6 -6 -6 -6 -6 -6 -6
-3 -3 -3 -3 -3 -4 -4 -4 -4 -5 -5 -5 -5 -5 -5 -6 -6 -6 -6 -6 -6 -6 -6 -6 -6 -6 -6 -7 -7 -7 -7 -7 -7 -7 -7 -7 -7 -7 -7 -7 -7 -7 -7 -6
-3 -3 -3 -4 -4 -4 -4 -4 -5 -5 -5 -5 -6 -6 -6 -6 -6 -6 -6 -6 -6 -7 -7 -7 -7 -7 -7 -7 -7 -7 -7 -7 -7 -7 -7 -7 -7 -7 -7 -7 -7 -7 -7 -7
-3 -3 -4 -4 -4 -4 -4 -5 -5 -5 -5 -6 -6 -6 -6 -6 -6 -7 -7 -7 -7 -7 -7 -7 -7 -7 -7 -8 -8 -7 -8 -8 -8 -8 -8 -8 -8 -8 -8 -8 -8 -8 -8 -7
-3 -4 -4 -4 -4 -5 -5 -5 -5 -5 -6 -6 -6 -6 -7 -7 -7 -7 -7 -7 -7 -7 -7 -7 -8 -8 -8 -8 -8 -8 -8 -8 -8 -8 -8 -8 -8 -8 -8 -8 -8 -8 -8 -8
-4 -4 -4 -5 -5 -5 -5 -5 -6 -6 -6 -6 -6 -7 -7 -7 -7 -7 -7 -7 -7 -7 -7 -8 -8 -8 -8 -8 -8 -8 -8 -8 -8 -8 -8 -8 -9 -9 -9 -9 -9 -8 -8 -8
-4 -4 -5 -5 -5 -5 -5 -6 -6 -6 -6 -7 -7 -7 -7 -7 -7 -7 -7 -7 -8 -8 -8 -8 -8 -8 -8 -8 -8 -8 -8 -8 -9 -9 -9 -9 -9 -9 -9 -9 -9 -9 -9 -9
-5 -5 -5 -5 -5 -6 -6 -6 -6 -7 -7 -7 -7 -7 -7 -7 -7 -8 -8 -8 -8 -8 -8 -8 -8 -9 -9 -9 -9 -9 -9 -9 -9 -9 -9 -9 -9 -9 -9 -9 -9 -9 -9 -9
-5 -5 -5 -6 -6 -6 -6 -7 -7 -7 -7 -7 -7 -7 -7 -8 -8 -8 -8 -8 -8 -8 -9 -9 -9 -9 -9 -9 -9 -9 -9 -9 -9 -9 -9 -9 -9 -9 -9 -9 -9 -9 -9 -9
Wind_Speed
6 7 5 6 6 6 7 6 6 7 8 9 8 7 6 5 5 5 4 4 3 3 3 2 2 2 3 3 2 2 2 2 2 2 2 2 2 2 2 2 2 2 2 2
4 5 5 7 8 8 8 7 9 9 9 8 7 6 5 5 5 4 5 5 4 4 3 3 3 3 3 3 2 2 2 2 2 2 2 2 3 2 2 2 2 2 2 2
3 3 3 6 7 7 5 6 6 8 8 6 6 6 6 5 5 5 6 5 5 4 4 3 3 3 3 3 2 2 2 2 2 2 2 3 3 3 3 3 3 3 3 3
2 2 5 2 1 3 6 5 6 6 6 6 7 6 5 4 5 6 6 5 5 4 4 3 3 3 3 2 2 2 2 2 2 2 3 3 3 3 3 3 3 3 3 3
2 3 6 4 2 2 5 6 5 6 6 5 5 4 4 3 5 5 5 4 4 4 3 3 2 2 1 1 1 2 2 2 2 3 3 3 3 3 3 3 3 3 3 3
3 4 5 2 0 1 2 5 2 4 5 4 3 4 4 4 5 5 4 4 3 3 2 2 2 1 1 1 2 2 3 3 3 3 3 3 3 4 3 3 3 3 3 3
5 5 6 1 1 3 4 3 1 3 4 4 4 5 4 4 4 3 3 3 3 2 1 2 2 1 1 1 2 3 3 3 3 3 3 3 3 3 3 3 3 2 3 3
4 6 6 2 4 5 4 3 3 4 4 5 5 4 4 4 3 3 3 3 2 2 2 2 2 1 1 2 3 3 3 3 3 3 2 2 3 3 2 2 2 2 2 3
6 6 3 4 4 3 2 3 4 4 4 4 4 4 4 3 3 3 3 2 2 2 2 2 2 2 2 3 4 3 3 3 3 3 2 2 2 3 2 2 2 2 2 3
6 8 6 5 5 4 4 5 4 4 4 3 4 4 3 3 3 3 2 2 2 2 2 2 3 3 3 4 3 3 3 3 3 2 3 2 2 2 2 2 2 2 3 3
8 7 5 6 6 6 5 5 4 3 3 4 4 4 3 3 3 2 2 2 2 2 3 3 3 3 3 3 3 3 3 3 3 3 3 3 3 3 3 3 3 3 4 4
7 5 5 5 4 5 5 6 5 4 4 3 3 4 3 3 3 3 3 2 2 3 4 4 3 4 3 3 3 3 3 3 3 3 3 3 3 3 3 4 5 5 5 5
6 4 4 4 4 4 5 5 5 5 5 4 3 3 3 3 3 3 3 3 3 4 4 4 4 4 3 3 3 3 3 3 3 3 3 3 3 3 3 3 3 4 5 5
5 3 4 4 4 4 4 4 3 3 3 3 3 3 3 3 3 3 3 4 4 4 4 4 3 4 3 3 3 3 3 3 3 3 3 3 3 3 3 4 4 3 3 4
7 6 5 3 3 3 3 3 3 3 3 3 2 3 3 3 4 4 4 3 3 4 4 3 4 4 3 3 3 3 3 3 3 3 3 3 3 3 3 3 4 4 4 3
5 5 5 5 5 4 4 4 5 5 4 3 3 4 4 4 4 4 4 3 3 4 4 4 4 4 3 3 3 3 3 4 4 3 3 3 3 3 3 3 3 4 4 4
6 6 6 7 7 6 6 6 6 6 5 5 5 4 4 3 3 4 4 4 4 4 4 4 4 4 3 3 3 3 3 3 4 3 3 3 3 3 3 3 3 4 4 4
8 7 7 7 7 7 6 6 6 6 5 5 4 4 4 4 5 5 4 4 4 4 4 4 4 4 4 4 3 3 3 3 3 3 3 3 3 3 3 3 4 4 4 4
7 6 6 6 6 6 6 6 6 5 5 4 4 5 5 5 5 5 4 4 4 5 4 3 4 4 4 4 4 3 3 3 3 3 3 4 4 3 3 3 4 4 4 4
5 5 5 5 5 5 6 5 5 5 5 4 5 5 5 5 4 4 4 5 4 4 3 4 4 3 4 4 4 3 3 3 3 3 3 3 3 3 3 4 4 4 4 4
5 5 5 5 5 5 5 5 5 5 5 5 5 5 5 5 4 4 4 5 4 3 4 4 3 3 3 3 4 3 3 3 3 3 3 3 3 3 4 4 4 4 4 4
4 5 5 5 5 4 4 4 4 5 4 5 5 5 4 5 4 4 5 5 4 4 3 3 3 4 4 4 3 3 3 3 3 3 3 3 3 3 3 4 4 4 4 4
4 5 5 5 5 4 3 4 4 4 5 5 5 5 5 5 4 4 4 3 3 4 4 3 4 5 5 3 3 3 3 3 3 3 3 3 3 3 4 4 4 4 4 4
4 5 4 4 3 4 4 4 4 4 4 5 5 5 5 4 4 4 4 4 5 5 4 4 5 5 5 3 3 3 3 3 3 3 3 3 3 3 4 4 4 4 4 5
4 4 4 4 5 5 5 4 3 3 4 3 4 4 4 4 4 4 4 4 5 5 3 4 5 5 3 3 3 3 3 3 3 3 3 4 4 4 4 4 4 4 4 5
4 4 4 5 5 4 3 3 3 3 3 3 3 3 3 3 4 4 3 4 4 4 3 3 3 4 3 3 3 3 3 3 4 4 4 4 4 4 4 4 5 5 5 5
3 3 3 3 4 4 4 4 4 4 4 4 4 3 3 3 3 3 3 3 3 3 3 3 3 3 3 3 3 3 3 3 3 4 4 4 4 4 4 5 5 5 5 5
Wind_Direction
269 278 265 270 271 250 235 244 256 267 269 283 296 305 312 319 324 326 326 317 304 297 300 313 321 318 316 314 301 271 263 265 275 283 287 282 274 270 264 251 243 239 233 251
275 270 261 276 277 257 246 249 253 264 274 287 297 301 305 314 323 317 315 313 304 297 297 303 305 305 306 303 299 272 265 277 291 295 294 290 281 271 263 256 249 242 239 253
258 296 278 269 256 233 233 239 244 254 272 295 299 304 305 309 314 308 304 301 297 290 286 290 293 293 292 295 298 278 270 286 292 291 294 297 294 280 263 254 248 246 249 259
257 254 244 264 76 220 232 252 252 263 276 280 294 305 303 314 315 309 307 302 300 294 292 295 292 287 289 296 294 282 281 289 294 297 298 299 292 287 279 263 254 250 254 268
212 249 271 269 245 210 227 266 252 253 276 292 311 308 286 320 318 304 301 299 297 297 296 300 298 290 275 280 288 291 292 297 299 297 296 297 298 294 290 277 268 261 257 267
209 240 256 275 104 196 224 266 238 235 259 275 286 280 298 334 323 314 317 318 314 313 310 313 317 303 280 304 312 308 302 297 294 290 287 288 294 296 297 290 278 273 266 272
227 241 262 286 166 173 225 284 321 252 254 247 251 278 308 321 319 313 322 327 329 327 326 325 325 314 308 323 316 313 308 299 297 294 289 287 293 295 295 294 288 279 276 282
208 226 248 158 159 209 265 323 292 274 261 255 267 287 302 307 310 318 332 337 337 333 340 342 338 323 312 316 315 312 306 299 298 300 298 292 293 295 294 292 286 285 282 292
216 236 292 200 224 260 289 274 280 276 277 264 268 278 291 300 306 314 320 324 322 321 334 341 333 318 305 314 316 308 301 299 301 307 306 299 294 295 295 289 282 284 286 286
248 254 259 247 248 259 264 268 279 275 273 259 263 270 279 292 298 305 314 318 316 313 313 321 323 313 304 309 311 304 301 303 306 309 314 312 302 292 285 279 278 278 282 282
250 264 267 242 237 244 253 264 270 274 267 257 258 262 266 276 280 286 295 302 294 287 290 301 312 311 314 313 310 304 302 305 308 307 306 308 304 295 288 281 281 280 277 280
240 234 230 243 226 222 240 251 250 249 256 257 252 257 263 268 271 275 284 288 282 286 291 299 305 308 314 314 307 301 300 305 308 307 308 309 311 313 302 288 297 293 290 290
246 249 247 255 238 225 238 247 242 238 241 248 252 254 255 262 267 272 277 278 274 278 285 293 298 302 311 314 303 293 295 299 300 302 304 306 304 303 310 314 299 288 286 291
229 221 240 236 242 237 238 244 238 235 239 244 244 247 252 260 266 268 271 277 277 277 281 286 290 297 309 309 298 292 292 292 293 291 294 293 292 293 293 300 306 305 300 296
225 230 238 241 232 232 230 222 219 226 231 239 239 243 249 258 266 272 277 281 279 275 277 282 285 295 309 304 292 287 287 289 293 293 292 290 291 291 289 290 293 298 305 312
222 226 226 229 234 234 225 219 226 233 231 235 241 250 254 258 267 276 279 276 271 274 279 280 281 292 301 295 287 282 281 290 295 292 293 294 294 293 293 292 292 292 296 307
200 217 221 230 233 233 228 226 229 233 233 235 242 248 253 260 270 276 279 278 272 274 278 278 281 291 289 282 278 277 281 281 285 287 285 288 290 290 293 294 294 293 295 299
225 229 222 223 225 227 231 230 229 231 233 238 242 242 243 247 257 267 274 279 277 277 276 275 280 284 277 276 275 273 271 274 276 279 283 285 288 290 291 290 293 295 300 304
225 225 224 225 225 225 227 228 230 232 234 231 233 240 245 248 254 260 266 265 266 272 280 282 286 280 276 275 277 266 265 267 270 275 280 285 289 289 289 289 290 294 299 303
223 221 222 225 221 219 225 228 228 231 231 225 230 238 245 248 249 253 255 257 258 266 278 281 279 275 275 272 273 268 263 261 264 271 277 278 280 283 286 287 289 292 296 300
222 220 220 223 226 227 226 223 221 228 230 223 224 233 243 251 248 246 251 264 269 268 273 273 273 273 273 271 267 265 262 260 261 265 269 273 277 279 281 283 286 289 293 297
223 222 225 225 225 232 229 222 219 221 225 228 232 234 240 248 249 253 253 254 264 269 272 269 268 272 274 273 263 260 258 258 259 260 262 267 272 276 279 283 286 289 292 295
229 228 225 222 222 229 233 227 219 216 221 226 229 231 236 244 244 246 260 253 256 265 268 265 271 275 279 273 265 258 257 257 257 258 260 263 266 270 274 278 282 286 289 292
228 225 223 217 207 215 230 235 229 230 232 238 237 234 236 244 251 247 253 261 261 266 262 265 270 275 275 267 261 259 259 260 259 260 261 261 262 265 268 273 278 282 285 287
224 219 211 207 216 227 233 235 236 237 237 241 247 242 237 237 241 253 255 253 256 263 262 264 270 274 269 259 256 257 259 260 262 262 258 258 259 262 267 271 274 277 280 282
220 222 222 223 227 231 226 220 227 234 236 244 251 246 243 245 246 249 248 247 251 257 259 261 265 267 258 254 255 257 260 264 266 264 261 261 261 262 264 266 269 271 274 278
224 225 224 232 232 227 223 223 229 235 233 235 248 249 246 247 244 242 242 246 250 254 254 255 258 258 256 254 255 256 257 257 256 257 259 260 261 261 262 265 268 270 272 273
Height
1521 1519 1519 1517 1516 1515 1515 1510 1506 1502 1503 1501 1502 1503 1503 1502 1501 1499 1498 1497 1496 1495 1495 1494 1494 1494 1494 1494 1493 1493 1493 1493 1492 1492 1492 1492 1492 1492 1492 1492 1492 1492 1492 1493
1521 1519 1519 1517 1514 1513 1512 1510 1507 1505 1503 1502 1502 1502 1502 1500 1499 1498 1496 1495 1494 1493 1493 1493 1492 1492 1492 1492 1491 1491 1491 1490 1490 1490 1490 1489 1490 1489 1489 1489 1489 1489 1489 1489
1512 1518 1517 1510 1508 1509 1509 1507 1506 1502 1501 1502 1501 1501 1500 1499 1498 1496 1494 1493 1492 1492 1491 1491 1491 1490 1490 1489 1489 1489 1488 1488 1488 1487 1487 1487 1486 1486 1486 1486 1486 1486 1486 1486
1515 1516 1511 1502 1507 1507 1507 1506 1505 1503 1502 1501 1501 1500 1499 1498 1496 1494 1493 1492 1491 1490 1490 1489 1489 1488 1488 1487 1487 1486 1486 1486 1485 1485 1484 1484 1483 1483 1483 1483 1483 1483 1483 1482
1515 1509 1502 1502 1505 1506 1505 1502 1502 1502 1501 1500 1500 1498 1496 1496 1494 1493 1491 1490 1489 1489 1488 1487 1487 1486 1486 1485 1485 1484 1484 1483 1483 1482 1482 1481 1481 1480 1480 1480 1480 1480 1480 1479
1515 1508 1499 1497 1504 1505 1505 1498 1498 1498 1498 1498 1498 1495 1493 1493 1492 1490 1489 1488 1487 1487 1486 1486 1485 1484 1484 1483 1483 1482 1482 1481 1481 1480 1480 1479 1478 1478 1477 1477 1477 1477 1476 1476
1512 1506 1497 1500 1503 1505 1501 1493 1496 1496 1496 1496 1496 1494 1493 1491 1489 1488 1487 1486 1486 1485 1484 1484 1483 1483 1482 1481 1481 1480 1480 1479 1478 1478 1477 1476 1476 1475 1475 1474 1474 1474 1473 1473
1509 1505 1498 1500 1501 1500 1495 1495 1494 1494 1493 1493 1492 1491 1490 1489 1487 1486 1485 1484 1484 1483 1483 1482 1482 1481 1480 1479 1479 1478 1478 1477 1476 1475 1475 1474 1473 1472 1472 1471 1471 1471 1470 1470
1502 1497 1496 1497 1496 1495 1494 1494 1493 1492 1491 1490 1489 1488 1488 1486 1485 1484 1484 1483 1482 1482 1481 1481 1480 1479 1478 1478 1477 1476 1475 1474 1473 1473 1472 1471 1471 1470 1469 1469 1468 1468 1467 1467
1500 1494 1494 1494 1494 1493 1492 1492 1490 1490 1489 1488 1487 1486 1485 1484 1483 1482 1482 1481 1480 1480 1479 1478 1478 1477 1476 1475 1474 1473 1473 1472 1471 1470 1469 1469 1468 1468 1467 1466 1466 1465 1465 1464
1494 1492 1492 1490 1490 1489 1489 1488 1487 1487 1486 1485 1484 1484 1483 1482 1481 1480 1480 1479 1478 1478 1477 1476 1476 1475 1474 1473 1472 1471 1470 1469 1468 1468 1467 1466 1466 1465 1464 1464 1464 1463 1463 1462
1485 1485 1486 1485 1485 1485 1485 1485 1484 1483 1483 1483 1482 1481 1480 1479 1479 1478 1477 1477 1476 1476 1475 1474 1473 1472 1471 1471 1470 1469 1468 1467 1466 1465 1464 1464 1463 1462 1461 1461 1461 1460 1460 1459
1482 1482 1482 1481 1482 1482 1481 1481 1481 1480 1480 1480 1479 1479 1478 1477 1476 1476 1475 1474 1474 1473 1472 1471 1470 1470 1469 1468 1467 1466 1466 1465 1464 1463 1462 1461 1460 1459 1458 1458 1458 1457 1457 1456
1478 1479 1478 1478 1478 1478 1478 1478 1478 1477 1477 1477 1477 1476 1476 1475 1474 1473 1473 1472 1471 1470 1470 1469 1468 1467 1466 1466 1465 1464 1463 1462 1461 1460 1460 1459 1458 1457 1456 1455 1454 1454 1454 1453
1474 1475 1475 1474 1475 1475 1474 1474 1474 1474 1474 1474 1473 1473 1473 1472 1471 1471 1470 1469 1468 1467 1466 1465 1465 1464 1463 1463 1462 1461 1460 1460 1459 1458 1457 1456 1455 1455 1454 1453 1452 1451 1450 1450
1470 1471 1471 1471 1471 1471 1471 1471 1470 1470 1470 1470 1470 1470 1469 1469 1468 1468 1467 1466 1465 1464 1463 1462 1461 1461 1460 1460 1459 1458 1457 1457 1456 1455 1454 1453 1452 1452 1451 1450 1449 1448 1448 1447
1467 1466 1467 1467 1467 1467 1467 1467 1467 1467 1467 1467 1466 1466 1466 1465 1465 1464 1464 1463 1462 1461 1460 1459 1458 1458 1457 1456 1456 1455 1454 1453 1453 1452 1451 1450 1449 1449 1448 1447 1446 1446 1445 1444
1463 1463 1463 1463 1463 1463 1464 1464 1464 1463 1463 1463 1463 1463 1462 1461 1461 1460 1460 1459 1458 1458 1457 1456 1455 1454 1454 1453 1452 1451 1451 1450 1449 1449 1448 1447 1446 1446 1445 1444 1444 1443 1442 1441
1459 1460 1460 1460 1460 1460 1460 1460 1460 1460 1460 1460 1459 1459 1458 1458 1458 1457 1456 1455 1454 1453 1453 1452 1451 1451 1450 1449 1449 1448 1447 1447 1446 1446 1445 1444 1443 1443 1442 1441 1441 1440 1439 1438
1456 1456 1456 1457 1457 1457 1457 1457 1457 1457 1457 1456 1456 1455 1455 1454 1454 1453 1453 1452 1451 1450 1449 1449 1448 1447 1446 1446 1445 1445 1444 1443 1443 1442 1442 1441 1440 1440 1439 1438 1438 1437 1436 1435
1453 1453 1453 1453 1454 1454 1454 1454 1454 1453 1453 1453 1452 1451 1451 1451 1450 1449 1448 1448 1447 1447 1446 1445 1444 1444 1443 1442 1442 1441 1441 1440 1440 1439 1438 1438 1437 1436 1436 1435 1434 1433 1432 1432
1450 1450 1450 1450 1450 1450 1450 1450 1450 1450 1449 1449 1448 1448 1447 1447 1446 1446 1445 1444 1444 1443 1442 1442 1441 1440 1440 1439 1438 1438 1437 1437 1436 1436 1435 1434 1434 1433 1432 1432 1431 1430 1429 1428
1448 1447 1447 1447 1447 1447 1447 1446 1446 1446 1445 1445 1445 1444 1444 1443 1442 1442 1441 1441 1440 1439 1439 1438 1438 1437 1436 1436 1435 1434 1434 1433 1433 1432 1431 1431 1430 1430 1429 1428 1428 1427 1426 1425
1445 1444 1444 1444 1444 1443 1442 1442 1442 1442 1442 1441 1441 1441 1440 1439 1439 1438 1438 1437 1437 1436 1435 1434 1434 1433 1433 1432 1431 1431 1430 1429 1429 1428 1428 1427 1427 1426 1426 1425 1424 1423 1422 1422
1441 1441 1440 1440 1440 1439 1439 1439 1438 1438 1438 1437 1437 1437 1436 1436 1435 1434 1434 1433 1433 1432 1431 1431 1430 1429 1429 1428 1428 1427 1426 1426 1425 1425 1424 1424 1423 1423 1422 1421 1421 1420 1419 1418
1437 1437 1437 1436 1436 1436 1435 1435 1434 1434 1434 1433 1433 1433 1432 1432 1431 1431 1430 1430 1429 1428 1427 1427 1426 1426 1425 1424 1424 1423 1423 1422 1422 1421 1421 1420 1419 1419 1418 1418 1417 1416 1416 1415
1433 1433 1432 1432 1432 1432 1431 1431 1431 1430 1430 1430 1429 1429 1428 1428 1427 1427 1426 1426 1425 1424 1424 1423 1422 1422 1421 1421 1420 1420 1419 1419 1418 1417 1417 1416 1416 1415 1415 1414 1413 1413 1412 1411